Time,TemperatureF,DewpointF,PressureIn,WindDirection,WindDirectionDegrees,WindSpeedMPH,WindSpeedGustMPH,Humidity,HourlyPrecipIn,Conditions,Clouds,dailyrainin,SolarRadiationWatts/m^2,SoftwareType,DateUTC
2013-02-28 00:21:00,37.0,31.0,-100.00,SSW,206,5.0,9.0,80,0.00,,,0.00,1.000000,,2013-02-28 08:21:00,
2013-02-28 00:32:00,37.0,31.0,-100.00,SSW,206,5.0,9.0,80,0.00,,,0.00,1.000000,,2013-02-28 08:32:00,
2013-02-28 00:42:00,37.0,31.0,-100.00,SSW,206,5.0,9.0,80,0.00,,,0.00,1.000000,,2013-02-28 08:42:00,
2013-02-28 00:52:00,37.0,31.0,-100.00,SSW,206,5.0,9.0,80,0.00,,,0.00,1.000000,,2013-02-28 08:52:00,
2013-02-28 01:21:00,37.0,32.0,-100.00,SW,221,5.0,11.0,81,0.00,,,0.00,1.000000,,2013-02-28 09:21:00,
2013-02-28 01:32:00,37.0,32.0,-100.00,SW,221,5.0,11.0,81,0.00,,,0.00,1.000000,,2013-02-28 09:32:00,
2013-02-28 01:41:00,37.0,32.0,-100.00,SW,221,5.0,11.0,81,0.00,,,0.00,1.000000,,2013-02-28 09:41:00,
2013-02-28 01:52:00,37.0,32.0,-100.00,SW,221,5.0,11.0,81,0.00,,,0.00,1.000000,,2013-02-28 09:52:00,
2013-02-28 02:21:00,36.0,31.0,-100.00,WSW,240,5.0,14.0,82,0.00,,,0.00,1.000000,,2013-02-28 10:21:00,
2013-02-28 02:32:00,36.0,31.0,-100.00,WSW,240,5.0,14.0,82,0.00,,,0.00,1.000000,,2013-02-28 10:32:00,
2013-02-28 02:42:00,36.0,31.0,-100.00,WSW,240,5.0,14.0,82,0.00,,,0.00,1.000000,,2013-02-28 10:42:00,
2013-02-28 02:51:00,36.0,31.0,-100.00,WSW,240,5.0,14.0,82,0.00,,,0.00,1.000000,,2013-02-28 10:51:00,
2013-02-28 04:21:00,36.0,33.0,-100.00,SSW,201,4.0,7.0,88,-99.99,,,0.00,1.000000,,2013-02-28 12:21:00,
2013-02-28 04:32:00,36.0,33.0,-100.00,SSW,201,4.0,7.0,88,-99.99,,,0.00,1.000000,,2013-02-28 12:32:00,
2013-02-28 04:42:00,36.0,33.0,-100.00,SSW,201,4.0,7.0,88,-99.99,,,0.00,1.000000,,2013-02-28 12:42:00,
2013-02-28 04:52:00,36.0,33.0,-100.00,SSW,201,4.0,7.0,88,-99.99,,,0.00,1.000000,,2013-02-28 12:52:00,
2013-02-28 05:21:00,37.0,33.0,-100.00,SSW,211,5.0,8.0,86,0.00,,,0.00,1.000000,,2013-02-28 13:21:00,
2013-02-28 05:32:00,37.0,33.0,-100.00,SSW,211,5.0,8.0,86,0.00,,,0.00,1.000000,,2013-02-28 13:32:00,
2013-02-28 05:42:00,37.0,33.0,-100.00,SSW,211,5.0,8.0,86,0.00,,,0.00,1.000000,,2013-02-28 13:42:00,
2013-02-28 05:52:00,37.0,33.0,-100.00,SSW,211,5.0,8.0,86,0.00,,,0.00,1.000000,,2013-02-28 13:52:00,
2013-02-28 06:21:00,37.0,33.0,-100.00,SSW,201,5.0,9.0,86,0.00,,,0.00,1.000000,,2013-02-28 14:21:00,
2013-02-28 06:32:00,37.0,33.0,-100.00,SSW,201,5.0,9.0,86,0.00,,,0.00,1.000000,,2013-02-28 14:32:00,
2013-02-28 06:42:00,37.0,33.0,-100.00,SSW,201,5.0,9.0,86,0.00,,,0.00,1.000000,,2013-02-28 14:42:00,
2013-02-28 06:52:00,37.0,33.0,-100.00,SSW,201,5.0,9.0,86,0.00,,,0.00,1.000000,,2013-02-28 14:52:00,
2013-02-28 07:21:00,36.0,34.0,-100.00,South,186,3.0,8.0,92,0.00,,,0.00,2.000000,,2013-02-28 15:21:00,
2013-02-28 07:32:00,36.0,34.0,-100.00,South,186,3.0,8.0,92,0.00,,,0.00,2.000000,,2013-02-28 15:32:00,
2013-02-28 07:41:00,36.0,34.0,-100.00,South,186,3.0,8.0,92,0.00,,,0.00,2.000000,,2013-02-28 15:41:00,
2013-02-28 07:52:00,36.0,34.0,-100.00,South,186,3.0,8.0,92,0.00,,,0.00,2.000000,,2013-02-28 15:52:00,
2013-02-28 08:22:00,37.0,35.0,-100.00,South,191,4.0,9.0,94,0.01,,,-99.99,23.000000,,2013-02-28 16:22:00,
2013-02-28 08:32:00,37.0,35.0,-100.00,South,191,4.0,9.0,94,0.01,,,-99.99,23.000000,,2013-02-28 16:32:00,
2013-02-28 08:42:00,37.0,35.0,-100.00,South,191,4.0,9.0,94,0.01,,,-99.99,23.000000,,2013-02-28 16:42:00,
2013-02-28 08:52:00,37.0,35.0,-100.00,South,191,4.0,9.0,94,0.01,,,-99.99,23.000000,,2013-02-28 16:52:00,
2013-02-28 09:21:00,38.0,36.0,-100.00,SSW,194,5.0,10.0,94,0.02,,,0.03,90.000000,,2013-02-28 17:21:00,
2013-02-28 09:32:00,38.0,36.0,-100.00,SSW,194,5.0,10.0,94,0.02,,,0.03,90.000000,,2013-02-28 17:32:00,
2013-02-28 09:41:00,38.0,36.0,-100.00,SSW,194,5.0,10.0,94,0.02,,,0.03,90.000000,,2013-02-28 17:41:00,
2013-02-28 09:52:00,38.0,36.0,-100.00,SSW,194,5.0,10.0,94,0.02,,,0.03,90.000000,,2013-02-28 17:52:00,
2013-02-28 10:22:00,40.0,38.0,-100.00,SSW,206,5.0,9.0,93,0.00,,,0.03,149.000000,,2013-02-28 18:22:00,
2013-02-28 10:32:00,40.0,38.0,-100.00,SSW,206,5.0,9.0,93,0.00,,,0.03,149.000000,,2013-02-28 18:32:00,
2013-02-28 10:42:00,40.0,38.0,-100.00,SSW,206,5.0,9.0,93,0.00,,,0.03,149.000000,,2013-02-28 18:42:00,
2013-02-28 10:52:00,40.0,38.0,-100.00,SSW,206,5.0,9.0,93,0.00,,,0.03,149.000000,,2013-02-28 18:52:00,
2013-02-28 11:21:00,44.0,39.0,-100.00,SSW,210,5.0,9.0,84,0.00,,,0.03,222.000000,,2013-02-28 19:21:00,
2013-02-28 11:32:00,44.0,39.0,-100.00,SSW,210,5.0,9.0,84,0.00,,,0.03,222.000000,,2013-02-28 19:32:00,
2013-02-28 11:41:00,44.0,39.0,-100.00,SSW,210,5.0,9.0,84,0.00,,,0.03,222.000000,,2013-02-28 19:41:00,
2013-02-28 11:51:00,44.0,39.0,-100.00,SSW,210,5.0,9.0,84,0.00,,,0.03,222.000000,,2013-02-28 19:51:00,
2013-02-28 12:21:00,47.0,41.0,-100.00,SSW,208,6.0,12.0,78,0.00,,,0.03,332.000000,,2013-02-28 20:21:00,
2013-02-28 12:32:00,47.0,41.0,-100.00,SSW,208,6.0,12.0,78,0.00,,,0.03,332.000000,,2013-02-28 20:32:00,
2013-02-28 12:41:00,47.0,41.0,-100.00,SSW,208,6.0,12.0,78,0.00,,,0.03,332.000000,,2013-02-28 20:41:00,
2013-02-28 12:52:00,47.0,41.0,-100.00,SSW,208,6.0,12.0,78,0.00,,,0.03,332.000000,,2013-02-28 20:52:00,
2013-02-28 13:22:00,47.0,39.0,-100.00,SW,215,8.0,13.0,75,0.00,,,0.03,380.000000,,2013-02-28 21:22:00,
2013-02-28 13:31:00,47.0,39.0,-100.00,SW,215,8.0,13.0,75,0.00,,,0.03,380.000000,,2013-02-28 21:31:00,
2013-02-28 13:41:00,47.0,39.0,-100.00,SW,215,8.0,13.0,75,0.00,,,0.03,380.000000,,2013-02-28 21:41:00,
2013-02-28 13:51:00,47.0,39.0,-100.00,SW,215,8.0,13.0,75,0.00,,,0.03,380.000000,,2013-02-28 21:51:00,
2013-02-28 14:21:00,47.0,40.0,-100.00,SSW,206,7.0,13.0,77,0.00,,,0.03,286.000000,,2013-02-28 22:21:00,
2013-02-28 14:32:00,47.0,40.0,-100.00,SSW,206,7.0,13.0,77,0.00,,,0.03,286.000000,,2013-02-28 22:32:00,
2013-02-28 14:41:00,47.0,40.0,-100.00,SSW,206,7.0,13.0,77,0.00,,,0.03,286.000000,,2013-02-28 22:41:00,
2013-02-28 14:52:00,47.0,40.0,-100.00,SSW,206,7.0,13.0,77,0.00,,,0.03,286.000000,,2013-02-28 22:52:00,
2013-02-28 15:21:00,47.0,39.0,-100.00,SW,224,7.0,11.0,75,0.00,,,0.03,239.000000,,2013-02-28 23:21:00,
2013-02-28 15:31:00,47.0,39.0,-100.00,SW,224,7.0,11.0,75,0.00,,,0.03,239.000000,,2013-02-28 23:31:00,
2013-02-28 15:41:00,47.0,39.0,-100.00,SW,224,7.0,11.0,75,0.00,,,0.03,239.000000,,2013-02-28 23:41:00,
2013-02-28 15:52:00,47.0,39.0,-100.00,SW,224,7.0,11.0,75,0.00,,,0.03,239.000000,,2013-02-28 23:52:00,
2013-02-28 16:22:00,47.0,40.0,-100.00,SSW,205,6.0,12.0,77,0.00,,,0.03,162.000000,,2013-03-01 00:22:00,
2013-02-28 16:32:00,47.0,40.0,-100.00,SSW,205,6.0,12.0,77,0.00,,,0.03,162.000000,,2013-03-01 00:32:00,
2013-02-28 16:41:00,47.0,40.0,-100.00,SSW,205,6.0,12.0,77,0.00,,,0.03,162.000000,,2013-03-01 00:41:00,
2013-02-28 16:51:00,47.0,40.0,-100.00,SSW,205,6.0,12.0,77,0.00,,,0.03,162.000000,,2013-03-01 00:51:00,
2013-02-28 17:21:00,45.0,40.0,-100.00,SSW,211,5.0,12.0,81,0.00,,,0.03,131.000000,,2013-03-01 01:21:00,
2013-02-28 17:31:00,45.0,40.0,-100.00,SSW,211,5.0,12.0,81,0.00,,,0.03,131.000000,,2013-03-01 01:31:00,
2013-02-28 17:42:00,45.0,40.0,-100.00,SSW,211,5.0,12.0,81,0.00,,,0.03,131.000000,,2013-03-01 01:42:00,
2013-02-28 17:51:00,45.0,40.0,-100.00,SSW,211,5.0,12.0,81,0.00,,,0.03,131.000000,,2013-03-01 01:51:00,
2013-02-28 18:21:00,43.0,39.0,-100.00,South,190,4.0,9.0,85,0.00,,,0.03,42.000000,,2013-03-01 02:21:00,
2013-02-28 18:31:00,43.0,39.0,-100.00,South,190,4.0,9.0,85,0.00,,,0.03,42.000000,,2013-03-01 02:31:00,
2013-02-28 18:42:00,43.0,39.0,-100.00,South,190,4.0,9.0,85,0.00,,,0.03,42.000000,,2013-03-01 02:42:00,
2013-02-28 18:52:00,43.0,39.0,-100.00,South,190,4.0,9.0,85,0.00,,,0.03,42.000000,,2013-03-01 02:52:00,
2013-02-28 19:11:00,41.0,39.0,-100.00,SSE,157,1.0,7.0,94,0.00,,,0.03,1.000000,,2013-03-01 03:11:00,
2013-02-28 19:21:00,41.0,39.0,-100.00,SSE,157,1.0,7.0,94,0.00,,,0.03,1.000000,,2013-03-01 03:21:00,
2013-02-28 19:32:00,41.0,39.0,-100.00,SSE,157,1.0,7.0,94,0.00,,,0.03,1.000000,,2013-03-01 03:32:00,
2013-02-28 19:41:00,41.0,39.0,-100.00,SSE,157,1.0,7.0,94,0.00,,,0.03,1.000000,,2013-03-01 03:41:00,
2013-02-28 19:51:00,41.0,39.0,-100.00,SSE,157,1.0,7.0,94,0.00,,,0.03,1.000000,,2013-03-01 03:51:00,
2013-02-28 20:32:00,41.0,39.0,-100.00,SSE,157,3.0,5.0,92,0.00,,,0.03,1.000000,,2013-03-01 04:32:00,
2013-02-28 20:42:00,41.0,39.0,-100.00,SSE,157,3.0,5.0,92,0.00,,,0.03,1.000000,,2013-03-01 04:42:00,
2013-02-28 20:51:00,41.0,39.0,-100.00,SSE,157,3.0,5.0,92,0.00,,,0.03,1.000000,,2013-03-01 04:51:00,
2013-02-28 21:22:00,41.0,40.0,-100.00,South,176,3.0,6.0,96,0.00,,,0.03,1.000000,,2013-03-01 05:22:00,
2013-02-28 21:32:00,41.0,40.0,-100.00,South,176,3.0,6.0,96,0.00,,,0.03,1.000000,,2013-03-01 05:32:00,
2013-02-28 21:41:00,41.0,40.0,-100.00,South,176,3.0,6.0,96,0.00,,,0.03,1.000000,,2013-03-01 05:41:00,
2013-02-28 21:52:00,41.0,40.0,-100.00,South,176,3.0,6.0,96,0.00,,,0.03,1.000000,,2013-03-01 05:52:00,
2013-02-28 22:21:00,39.0,38.0,-100.00,SW,223,3.0,5.0,98,0.00,,,0.03,1.000000,,2013-03-01 06:21:00,
2013-02-28 22:32:00,39.0,38.0,-100.00,SW,223,3.0,5.0,98,0.00,,,0.03,1.000000,,2013-03-01 06:32:00,
2013-02-28 22:42:00,39.0,38.0,-100.00,SW,223,3.0,5.0,98,0.00,,,0.03,1.000000,,2013-03-01 06:42:00,
2013-02-28 22:52:00,39.0,38.0,-100.00,SW,223,3.0,5.0,98,0.00,,,0.03,1.000000,,2013-03-01 06:52:00,
2013-02-28 23:21:00,40.0,40.0,-100.00,South,180,3.0,5.0,100,0.01,,,0.04,1.000000,,2013-03-01 07:21:00,
2013-02-28 23:32:00,40.0,40.0,-100.00,South,180,3.0,5.0,100,0.01,,,0.04,1.000000,,2013-03-01 07:32:00,
2013-02-28 23:42:00,40.0,40.0,-100.00,South,180,3.0,5.0,100,0.01,,,0.04,1.000000,,2013-03-01 07:42:00,
2013-02-28 23:51:00,40.0,40.0,-100.00,South,180,3.0,5.0,100,0.01,,,0.04,1.000000,,2013-03-01 07:51:00,